Martha's Vineyard, MA

4:50 AM EDT on August 23, 2017 (GMT -0400)
Martha's Vineyard

Weather History for KMVY - September, 2011

Change the Weather History Date:

Friday, September 2, 2011

  Actual Average Record
Temperature  
Mean Temperature 64 °F -  
Max Temperature 75 °F 75 °F 88 °F (1969)
Min Temperature 50 °F 58 °F 42 °F (2001)
Degree Days  
Heating Degree Days 1    
Growing Degree Days 14 (Base 50)    
Moisture  
Dew Point 56 °F    
Average Humidity 75    
Maximum Humidity 96    
Minimum Humidity 51    
Precipitation  
Precipitation 0.00 in - - ()
Sea Level Pressure  
Sea Level Pressure 30.11 in    
Wind  
Wind Speed 7 mph (NE)    
Max Wind Speed 15 mph    
Max Gust Speed 17 mph    
Visibility 10 miles    
Events      
Averages and records for this station are not official NWS values.
T = Trace of Precipitation, MM = Missing Value Source: NWS Daily Summary

Daily Weather History Graph

Daily Weather History Graph

Search for Another Location

Airport or City:

Trip Planner

Search our weather history database for the weather conditions in past years. The results will help you decide how hot, cold, wet, or windy it might be!

Date:

Astronomy

Sep. 02, 2011 Rise Set
Actual Time 6:09 AM EDT 7:14 PM EDT
Civil Twilight 5:41 AM EDT 7:42 PM EDT
Nautical Twilight 5:07 AM EDT 8:16 PM EDT
Astronomical Twilight 4:31 AM EDT 8:51 PM EDT
Moon 11:42 AM EDT (9/2) 9:41 PM EDT (9/2)
Length of Visible Light 14h 01m
Length of Day
13h 04m
Waxing Crescent, 27% of the Moon is Illuminated
Sep 2
Waxing Crescent
Sep 4
First Quarter
Sep 12
Full
Sep 20
Last Quarter
Sep 27
New

Hourly Weather History & Observations

Time (EDT) Temp. Dew Point Humidity Pressure Visibility Wind Dir Wind Speed Gust Speed Precip Events Conditions
12:18 AM 62.6 °F 59.0 °F 88% 30.14 in 10.0 mi NNE 4.6 mph - N/A   Mostly Cloudy
12:53 AM 63.0 °F 59.0 °F 87% 30.14 in 10.0 mi North 4.6 mph - N/A   Mostly Cloudy
1:53 AM 64.0 °F 60.1 °F 87% 30.13 in 10.0 mi NNE 8.1 mph - N/A   Overcast
2:18 AM 64.4 °F 60.8 °F 88% 30.13 in 10.0 mi NNE 4.6 mph - N/A   Overcast
3:27 AM 62.6 °F 57.2 °F 82% 30.12 in 10.0 mi NNE 6.9 mph - N/A   Scattered Clouds
3:53 AM 62.1 °F 57.9 °F 86% 30.12 in 10.0 mi NNE 6.9 mph - N/A   Clear
5:53 AM 61.0 °F 57.0 °F 87% 30.12 in 10.0 mi NNE 8.1 mph - N/A   Partly Cloudy
6:48 AM 62.6 °F 57.2 °F 82% 30.14 in 10.0 mi NNE 9.2 mph - N/A   Mostly Cloudy
6:53 AM 62.1 °F 57.9 °F 86% 30.14 in 10.0 mi NNE 9.2 mph - N/A   Mostly Cloudy
7:00 AM 62.6 °F 57.2 °F 82% 30.13 in 10.0 mi NNE 9.2 mph - N/A   Scattered Clouds
7:53 AM 64.9 °F 59.0 °F 81% 30.14 in 10.0 mi NNE 10.4 mph - N/A   Partly Cloudy
8:53 AM 68.0 °F 57.9 °F 70% 30.13 in 10.0 mi NE 10.4 mph - N/A   Partly Cloudy
9:53 AM 71.1 °F 57.0 °F 61% 30.14 in 10.0 mi NNE 11.5 mph - N/A   Clear
10:53 AM 72.0 °F 57.0 °F 59% 30.14 in 10.0 mi NNE 11.5 mph - N/A   Clear
11:53 AM 73.0 °F 55.0 °F 53% 30.12 in 10.0 mi ENE 13.8 mph - N/A   Clear
12:53 PM 73.0 °F 54.0 °F 51% 30.11 in 10.0 mi ENE 15.0 mph - N/A   Clear
1:53 PM 73.9 °F 55.0 °F 52% 30.10 in 10.0 mi ENE 11.5 mph 17.3 mph N/A   Clear
2:53 PM 73.0 °F 55.9 °F 55% 30.08 in 10.0 mi NE 11.5 mph 17.3 mph N/A   Clear
4:53 PM 71.1 °F 55.0 °F 57% 30.07 in 10.0 mi NE 9.2 mph - N/A   Clear
5:53 PM 69.1 °F 55.0 °F 61% 30.07 in 10.0 mi ENE 9.2 mph - N/A   Clear
6:53 PM 66.0 °F 55.9 °F 70% 30.06 in 10.0 mi NE 6.9 mph - N/A   Clear
7:53 PM 61.0 °F 55.0 °F 81% 30.06 in 10.0 mi NE 3.5 mph - N/A   Clear
8:53 PM 57.9 °F 54.0 °F 87% 30.06 in 10.0 mi NE 4.6 mph - N/A   Clear
9:53 PM 55.0 °F 52.0 °F 89% 30.06 in 10.0 mi Calm Calm - N/A   Clear
10:53 PM 50.0 °F 48.9 °F 96% 30.06 in 7.0 mi Calm Calm - N/A   Clear